FW8343 Weather Reports


Display with metric or nautical units.
time (UTC)temp
F
wind
direction
speed
MPH
gust
MPH
rain 1hr
in
rain 24hr
in
rain mn
in
humidity
%
barometer
mb
20260831034020 69 123 2.0 10.0 0.00 0.00 0.00 96 1013.3
20260831033519 69 119 3.0 10.0 0.00 0.00 0.00 95 1013.3
20260831033039 69 117 2.0 7.0 0.00 0.00 0.00 95 1013.3
20260831032520 69 142 2.0 8.0 0.00 0.00 0.00 95 1013.2
20260831032020 69 148 4.0 8.0 0.00 0.00 0.00 95 1013.4
20260831031535 69 101 3.0 8.0 0.00 0.00 0.00 95 1013.4
20260831031021 70 134 3.0 8.0 0.00 0.00 0.00 94 1013.3
20260831030520 70 98 3.0 10.0 0.00 0.00 0.00 94 1013.4
20260831030046 70 124 3.0 10.0 0.00 0.00 0.00 94 1013.4
20260831025521 70 128 4.0 9.0 0.00 0.00 0.00 94 1013.5
20260831025020 70 146 3.0 9.0 0.00 0.00 0.00 93 1013.7
20260831024538 70 146 2.0 8.0 0.00 0.00 0.00 93 1013.7
20260831024020 70 122 3.0 8.0 0.00 0.00 0.00 93 1013.8
20260831023520 70 134 3.0 8.0 0.00 0.00 0.00 93 1013.8
20260831023040 70 144 3.0 8.0 0.00 0.00 0.00 94 1013.8
20260831022518 70 70 3.0 7.0 0.00 0.00 0.00 93 1013.7
20260831022016 70 154 2.0 8.0 0.00 0.00 0.00 94 1013.8
20260831021536 70 143 3.0 8.0 0.00 0.00 0.00 94 1013.8
20260831021020 70 155 2.0 7.0 0.00 0.00 0.00 94 1013.8
20260831020520 70 0 1.0 3.0 0.00 0.00 0.00 94 1013.8
20260831020034 70 0 0.0 6.0 0.00 0.00 0.00 94 1013.8
20260831015519 70 0 0.0 6.0 0.00 0.00 0.00 94 1013.7
20260831015021 70 0 1.0 7.0 0.00 0.00 0.00 95 1013.7
20260831014536 70 166 2.0 7.0 0.00 0.00 0.00 95 1013.7
20260831014021 70 143 2.0 5.0 0.00 0.00 0.00 95 1013.6
20260831013521 70 136 2.0 5.0 0.00 0.00 0.00 95 1013.5
20260831013040 69 163 2.0 5.0 0.00 0.00 0.00 96 1013.5
20260831012517 69 155 0.0 4.0 0.00 0.00 0.00 96 1013.4
20260831012017 69 165 0.0 4.0 0.00 0.00 0.00 95 1013.1
20260831011539 69 0 0.0 2.0 0.00 0.00 0.00 95 1013.0
20260831011023 69 0 0.0 1.0 0.00 0.00 0.00 95 1013.1
20260831010521 69 0 0.0 1.0 0.00 0.00 0.00 95 1013.1
20260831010036 69 0 0.0 1.0 0.00 0.00 0.00 95 1013.2
20260831005520 69 0 0.0 1.0 0.00 0.00 0.00 95 1013.1
20260831005021 69 0 0.0 1.0 0.00 0.00 0.00 94 1013.1
20260831004536 69 0 0.0 1.0 0.00 0.00 0.00 94 1013.3
20260831004020 69 0 0.0 1.0 0.00 0.00 0.00 94 1013.3
20260831003518 69 0 0.0 0.0 0.00 0.00 0.00 93 1013.5
20260831003041 69 0 0.0 0.0 0.00 0.00 0.00 93 1013.6
20260831002518 69 0 0.0 0.0 0.00 0.00 0.00 93 1013.6
20260831002018 69 0 0.0 0.0 0.00 0.00 0.00 93 1013.7
20260831001534 69 0 0.0 0.0 0.00 0.00 0.00 93 1013.7
20260831001020 69 0 0.0 0.0 0.00 0.00 0.00 93 1013.7
20260831000521 69 0 0.0 1.0 0.00 0.00 0.00 92 1013.8
20260831000037 69 0 0.0 1.0 0.00 0.00 0.00 93 1013.8
20260830235522 69 0 0.0 1.0 0.00 0.00 0.00 92 1013.8
20260830235023 69 0 0.0 0.0 0.00 0.00 0.00 92 1013.8
20260830234543 69 0 0.0 2.0 0.00 0.00 0.00 92 1013.9
20260830234019 69 0 0.0 2.0 0.00 0.00 0.00 92 1013.9
20260830233518 69 0 0.0 0.0 0.00 0.00 0.00 92 1013.6
20260830233035 69 0 0.0 2.0 0.00 0.00 0.00 92 1013.4
20260830232518 69 0 0.0 2.0 0.00 0.00 0.00 92 1013.3
20260830232018 69 0 0.0 2.0 0.00 0.00 0.00 92 1013.5
20260830231541 69 0 0.0 2.0 0.00 0.00 0.00 92 1013.5
20260830231025 69 0 0.0 3.0 0.00 0.00 0.00 91 1013.6
20260830230522 69 0 0.0 3.0 0.00 0.00 0.00 91 1013.8
20260830230043 69 0 0.0 3.0 0.00 0.00 0.00 91 1013.9
20260830225521 69 0 0.0 4.0 0.00 0.00 0.00 91 1013.8
20260830225019 69 340 0.0 4.0 0.00 0.00 0.00 90 1013.9
20260830224542 69 0 0.0 4.0 0.00 0.00 0.00 90 1013.7
20260830224019 70 355 0.0 2.0 0.00 0.00 0.00 90 1013.7
20260830223515 70 0 0.0 2.0 0.00 0.00 0.00 90 1013.6
20260830223035 70 0 0.0 4.0 0.00 0.00 0.00 89 1013.5
20260830222519 71 0 0.0 4.0 0.00 0.00 0.00 88 1013.4
20260830222020 71 0 0.0 1.0 0.00 0.00 0.00 88 1013.2
20260830221540 72 0 0.0 2.0 0.00 0.00 0.00 88 1013.0
20260830221021 72 0 0.0 3.0 0.00 0.00 0.00 87 1013.0
20260830220522 73 0 0.0 3.0 0.00 0.00 0.00 86 1013.2
20260830220039 74 344 0.0 3.0 0.00 0.00 0.00 85 1013.6
20260830215517 74 0 0.0 0.0 0.00 0.00 0.00 85 1013.6
20260830215020 74 0 0.0 0.0 0.00 0.00 0.00 85 1013.7
20260830214536 74 0 0.0 0.0 0.00 0.00 0.00 85 1013.7
20260830214020 74 0 0.0 0.0 0.00 0.00 0.00 86 1013.6
20260830213520 73 0 0.0 0.0 0.00 0.00 0.00 86 1013.7
20260830213037 73 0 0.0 0.0 0.00 0.00 0.00 86 1013.7
20260830212519 73 0 0.0 3.0 0.00 0.00 0.00 86 1013.5
20260830212018 73 0 0.0 3.0 0.00 0.00 0.00 86 1013.6
20260830211534 73 0 0.0 2.0 0.00 0.00 0.00 85 1013.8
20260830211023 73 0 0.0 5.0 0.00 0.00 0.00 86 1013.9
20260830210520 73 140 2.0 5.0 0.00 0.00 0.00 84 1013.8
20260830210037 73 151 2.0 5.0 0.00 0.00 0.00 85 1013.7
20260830205523 73 137 3.0 6.0 0.00 0.00 0.00 84 1013.7
20260830205021 74 159 3.0 6.0 0.00 0.00 0.00 85 1013.7
20260830204534 74 0 0.0 4.0 0.00 0.00 0.00 86 1013.8
20260830204020 74 0 0.0 4.0 0.00 0.00 0.00 86 1013.9
20260830203518 74 159 0.0 4.0 0.00 0.00 0.00 86 1013.8
20260830203039 74 0 0.0 1.0 0.00 0.00 0.00 86 1013.8
20260830202517 74 0 0.0 1.0 0.00 0.00 0.00 86 1013.7
20260830202020 74 0 0.0 0.0 0.00 0.00 0.00 87 1013.7
20260830201538 73 0 0.0 2.0 0.00 0.00 0.00 87 1013.7
20260830201020 73 0 0.0 3.0 0.00 0.00 0.00 87 1013.8
20260830200521 73 159 0.0 4.0 0.00 0.00 0.00 87 1013.9
20260830200034 73 159 0.0 5.0 0.00 0.00 0.00 87 1013.9
20260830195521 73 0 0.0 5.0 0.00 0.00 0.00 87 1013.9
20260830195021 73 256 0.0 5.0 0.00 0.00 0.00 87 1014.0
20260830194541 73 157 0.0 7.0 0.00 0.00 0.00 87 1013.9
20260830194025 72 0 0.0 7.0 0.00 0.00 0.00 87 1013.9
20260830193517 72 155 0.0 5.0 0.00 0.00 0.00 89 1013.9
20260830193042 72 0 0.0 5.0 0.00 0.00 0.00 89 1014.1
20260830192517 71 168 1.0 5.0 0.00 0.00 0.00 89 1014.1
20260830192015 71 163 2.0 10.0 0.00 0.00 0.00 89 1014.0
20260830191537 71 156 4.0 10.0 0.00 0.00 0.00 88 1013.9
20260830191021 71 176 1.0 5.0 0.00 0.00 0.00 89 1014.0
20260830190521 71 0 0.0 5.0 0.00 0.00 0.00 89 1014.0
20260830190037 71 146 0.0 4.0 0.00 0.00 0.00 88 1014.1
20260830185522 71 0 0.0 1.0 0.00 0.00 0.00 88 1014.0
20260830185021 71 0 0.0 5.0 0.00 0.00 0.00 89 1013.9
20260830184537 71 0 0.0 5.0 0.00 0.00 0.00 89 1013.9
20260830184018 71 0 0.0 4.0 0.00 0.00 0.00 89 1013.9
20260830183521 71 0 0.0 4.0 0.00 0.00 0.00 89 1014.1
20260830183034 71 161 0.0 4.0 0.00 0.00 0.00 89 1014.1
20260830182524 71 0 0.0 3.0 0.00 0.00 0.00 89 1014.2
20260830182024 71 0 0.0 3.0 0.00 0.00 0.00 89 1014.3
20260830181537 71 0 0.0 3.0 0.00 0.00 0.00 90 1014.3
20260830181022 71 0 0.0 3.0 0.00 0.00 0.00 89 1014.2
20260830180521 70 0 0.0 2.0 0.00 0.00 0.00 90 1014.1
20260830180053 70 0 0.0 2.0 0.00 0.00 0.00 90 1014.3
20260830175518 70 0 0.0 2.0 0.00 0.00 0.00 90 1014.4
20260830175017 70 0 0.0 2.0 0.00 0.00 0.00 90 1014.3
20260830174538 70 0 0.0 5.0 0.00 0.00 0.00 90 1014.2
20260830174020 70 0 0.0 5.0 0.00 0.00 0.00 90 1014.2
20260830173522 70 0 0.0 2.0 0.00 0.00 0.00 91 1014.3
20260830173052 69 0 0.0 2.0 0.00 0.00 0.00 91 1014.3
20260830172519 69 0 0.0 2.0 0.00 0.00 0.00 92 1014.4
20260830172016 69 0 0.0 3.0 0.00 0.00 0.00 92 1014.4
20260830171536 69 0 0.0 3.0 0.00 0.00 0.00 93 1014.4
20260830171018 69 218 0.0 5.0 0.00 0.00 0.00 92 1014.4
20260830170520 69 148 1.0 5.0 0.00 0.00 0.00 92 1014.4
20260830170037 69 0 0.0 2.0 0.00 0.00 0.00 94 1014.5
20260830165525 68 0 0.0 4.0 0.00 0.00 0.00 93 1014.6
20260830165024 68 0 0.0 4.0 0.00 0.00 0.00 93 1014.6
20260830164543 68 0 0.0 2.0 0.00 0.00 0.00 94 1014.6
20260830164020 68 0 0.0 2.0 0.00 0.00 0.00 94 1014.8
20260830163516 68 0 0.0 2.0 0.00 0.00 0.00 95 1015.0
20260830163036 68 0 0.0 0.0 0.00 0.00 0.00 95 1014.7
20260830162520 68 0 0.0 0.0 0.00 0.00 0.00 95 1015.1
20260830162023 67 0 0.0 0.0 0.00 0.00 0.00 95 1015.2
20260830161535 67 0 0.0 0.0 0.00 0.00 0.00 95 1015.2
20260830161019 67 0 0.0 1.0 0.00 0.00 0.00 95 1015.1
20260830160521 67 0 0.0 3.0 0.00 0.00 0.00 95 1015.2
20260830160039 67 0 0.0 3.0 0.00 0.00 0.00 95 1015.2
20260830155519 67 0 0.0 3.0 0.00 0.00 0.00 95 1015.1
20260830155022 67 174 0.0 2.0 0.00 0.00 0.00 95 1015.2
20260830154535 67 0 0.0 3.0 0.00 0.00 0.00 96 1015.1
20260830154019 67 0 0.0 3.0 0.00 0.00 0.00 96 1014.7
20260830153518 67 0 0.0 3.0 0.00 0.00 0.00 96 1014.4
20260830153035 67 0 0.0 3.0 0.00 0.00 0.00 97 1013.9
20260830152522 66 0 0.0 2.0 0.00 0.00 0.00 97 1013.7
20260830152020 66 0 0.0 3.0 0.00 0.00 0.00 97 1013.8
20260830151535 66 0 0.0 3.0 0.00 0.00 0.00 97 1014.2
20260830151024 66 0 0.0 3.0 0.00 0.00 0.00 97 1014.3
20260830150522 66 0 0.0 3.0 0.00 0.00 0.00 97 1014.5
20260830150039 66 124 0.0 3.0 0.00 0.00 0.00 98 1014.6
20260830145522 65 0 0.0 1.0 0.00 0.00 0.00 97 1014.5
20260830145022 65 0 0.0 0.0 0.00 0.00 0.00 97 1014.4
20260830144535 65 0 0.0 2.0 0.00 0.00 0.00 97 1014.5
20260830144018 65 0 0.0 3.0 0.00 0.00 0.00 98 1014.4
20260830143521 65 0 0.0 3.0 0.00 0.00 0.00 98 1014.4
20260830143037 65 0 0.0 0.0 0.00 0.00 0.00 98 1014.2
20260830142523 65 0 0.0 2.0 0.00 0.00 0.00 98 1014.3
20260830142020 65 0 0.0 2.0 0.00 0.00 0.00 98 1014.5
20260830141549 65 0 0.0 2.0 0.00 0.00 0.00 98 1014.5
20260830141021 65 0 0.0 2.0 0.00 0.00 0.00 98 1014.5
20260830140519 65 0 0.0 0.0 0.00 0.00 0.00 98 1014.5
20260830140045 65 0 0.0 0.0 0.00 0.00 0.00 98 1014.5
20260830135526 65 0 0.0 2.0 0.00 0.00 0.00 98 1014.4
20260830135019 64 0 0.0 2.0 0.00 0.00 0.00 98 1014.4
20260830134534 64 0 0.0 2.0 0.00 0.00 0.00 98 1014.3
20260830134019 65 0 0.0 0.0 0.00 0.00 0.00 99 1014.1
20260830133517 65 0 0.0 1.0 0.00 0.00 0.00 99 1014.0
20260830133041 64 0 0.0 1.0 0.00 0.00 0.00 99 1014.1
20260830132526 64 0 0.0 1.0 0.00 0.00 0.00 99 1014.1
20260830132022 64 0 0.0 0.0 0.00 0.00 0.00 99 1014.3
20260830131534 64 0 0.0 0.0 0.00 0.00 0.00 99 1014.4
20260830131023 63 0 0.0 0.0 0.00 0.00 0.00 99 1014.6
20260830130522 63 0 0.0 0.0 0.00 0.00 0.00 99 1014.6
20260830130034 63 0 0.0 0.0 0.00 0.00 0.00 99 1014.5
20260830125521 63 0 0.0 0.0 0.00 0.00 0.00 99 1014.5
20260830125019 63 0 0.0 0.0 0.00 0.00 0.00 99 1014.6
20260830124535 63 0 0.0 1.0 0.00 0.00 0.00 99 1014.5
20260830124019 63 0 0.0 1.0 0.00 0.00 0.00 99 1014.3
20260830123522 63 0 0.0 0.0 0.00 0.00 0.00 99 1013.8
20260830123038 63 0 0.0 0.0 0.00 0.00 0.00 99 1013.8
20260830122518 63 0 0.0 0.0 0.00 0.00 0.00 99 1013.9
20260830122020 63 0 0.0 0.0 0.00 0.00 0.00 99 1013.9
20260830121538 63 0 0.0 0.0 0.00 0.00 0.00 99 1014.2
20260830121025 63 0 0.0 0.0 0.00 0.00 0.00 99 1014.1
20260830120521 63 0 0.0 0.0 0.00 0.00 0.00 99 1014.1
20260830120035 63 0 0.0 0.0 0.00 0.00 0.00 99 1014.2
20260830115519 63 0 0.0 0.0 0.00 0.00 0.00 99 1014.1
20260830115021 63 0 0.0 1.0 0.00 0.00 0.00 99 1013.9
20260830114553 63 0 0.0 1.0 0.00 0.00 0.00 99 1014.0
20260830114018 63 0 0.0 0.0 0.00 0.00 0.00 99 1014.1
20260830113518 63 0 0.0 0.0 0.00 0.00 0.00 99 1014.1
20260830113034 63 0 0.0 0.0 0.00 0.00 0.00 99 1014.0
20260830112516 63 0 0.0 2.0 0.00 0.00 0.00 99 1014.0
20260830112018 63 0 0.0 2.0 0.00 0.00 0.00 99 1014.0
20260830111536 63 0 0.0 2.0 0.00 0.00 0.00 99 1013.9
20260830111020 63 0 0.0 0.0 0.00 0.00 0.00 99 1014.1
20260830110520 63 0 0.0 0.0 0.00 0.00 0.00 99 1014.0
20260830110036 63 0 0.0 0.0 0.00 0.00 0.00 99 1014.1
20260830105520 63 0 0.0 2.0 0.00 0.00 0.00 99 1014.1
20260830105019 63 0 0.0 2.0 0.00 0.00 0.00 99 1014.1
20260830104534 63 0 0.0 2.0 0.00 0.00 0.00 99 1014.1
20260830104018 63 0 0.0 0.0 0.00 0.00 0.00 99 1014.0
20260830103518 63 0 0.0 0.0 0.00 0.00 0.00 99 1013.9
20260830103037 63 0 0.0 2.0 0.00 0.00 0.00 99 1013.7
20260830102522 63 0 0.0 3.0 0.00 0.00 0.00 98 1013.6
20260830102021 63 0 0.0 3.0 0.00 0.00 0.00 99 1013.4
20260830101534 63 124 0.0 1.0 0.00 0.00 0.00 99 1013.5
20260830101022 63 0 0.0 1.0 0.00 0.00 0.00 99 1013.5
20260830100520 63 0 0.0 1.0 0.00 0.00 0.00 98 1013.6
20260830100036 63 0 0.0 1.0 0.00 0.00 0.00 98 1013.6
20260830095521 63 0 0.0 1.0 0.00 0.00 0.00 98 1013.6
20260830095020 63 0 0.0 1.0 0.00 0.00 0.00 98 1013.6
20260830094537 63 0 0.0 3.0 0.00 0.00 0.00 98 1013.6
20260830094017 63 0 0.0 3.0 0.00 0.00 0.00 98 1013.6
20260830093517 63 0 0.0 2.0 0.00 0.00 0.00 98 1013.5
20260830093035 63 124 0.0 2.0 0.00 0.00 0.00 98 1013.7
20260830092520 63 0 0.0 1.0 0.00 0.00 0.00 98 1013.7
20260830092022 63 0 0.0 3.0 0.00 0.00 0.00 98 1013.5
20260830091536 63 0 0.0 3.0 0.00 0.00 0.00 98 1013.6
20260830091024 63 124 0.0 3.0 0.00 0.00 0.00 98 1013.5
20260830090521 63 0 0.0 1.0 0.00 0.00 0.00 98 1013.5
20260830090055 63 0 0.0 1.0 0.00 0.00 0.00 98 1013.5
20260830085516 63 0 0.0 0.0 0.00 0.00 0.00 98 1013.6
20260830085016 63 0 0.0 0.0 0.00 0.00 0.00 98 1013.7
20260830084536 63 0 0.0 0.0 0.00 0.00 0.00 98 1013.8
20260830084021 63 0 0.0 2.0 0.00 0.00 0.00 98 1013.8
20260830083521 64 0 0.0 3.0 0.00 0.00 0.00 98 1013.8
20260830083035 64 0 0.0 4.0 0.00 0.00 0.00 98 1013.8
20260830082520 64 124 1.0 4.0 0.00 0.00 0.00 98 1013.8
20260830082018 63 124 0.0 4.0 0.00 0.00 0.00 98 1013.7
20260830081540 63 136 2.0 4.0 0.00 0.00 0.00 98 1013.7
20260830081015 63 136 2.0 4.0 0.00 0.00 0.00 98 1013.6
20260830080516 63 136 1.0 4.0 0.00 0.00 0.00 98 1013.6
20260830080034 63 0 0.0 3.0 0.00 0.00 0.00 98 1013.4
20260830075520 63 0 0.0 3.0 0.00 0.00 0.00 98 1013.4
20260830075020 63 0 0.0 3.0 0.00 0.00 0.00 98 1013.4
20260830074538 63 0 0.0 0.0 0.00 0.00 0.00 97 1013.4
20260830074019 63 0 0.0 0.0 0.00 0.00 0.00 97 1013.4
20260830073518 64 0 0.0 2.0 0.00 0.00 0.00 97 1013.3
20260830073043 64 0 0.0 2.0 0.00 0.00 0.00 98 1013.3
20260830072521 64 0 0.0 2.0 0.00 0.00 0.00 98 1013.5
20260830072019 64 0 0.0 2.0 0.00 0.00 0.00 98 1013.6
20260830071539 64 0 0.0 3.0 0.00 0.00 0.00 98 1013.7
20260830071020 64 136 0.0 4.0 0.00 0.00 0.00 98 1013.6
20260830070520 64 136 0.0 4.0 0.00 0.00 0.00 98 1013.7
20260830070036 64 0 0.0 2.0 0.00 0.00 0.00 98 1013.8
20260830065518 64 0 0.0 2.0 0.00 0.00 0.00 98 1013.9
20260830065020 64 0 0.0 2.0 0.00 0.00 0.00 98 1014.1
20260830064535 63 0 0.0 1.0 0.00 0.00 0.00 97 1014.2
20260830064018 63 0 0.0 1.0 0.00 0.00 0.00 97 1014.3
20260830063522 64 136 0.0 0.0 0.00 0.00 0.00 97 1014.4
20260830063036 64 0 0.0 2.0 0.00 0.00 0.00 96 1014.4
20260830062522 64 0 0.0 2.0 0.00 0.00 0.00 97 1014.4
20260830062022 64 136 0.0 2.0 0.00 0.00 0.00 97 1014.6
20260830061541 64 0 0.0 3.0 0.00 0.00 0.00 97 1014.7
20260830061021 64 0 0.0 3.0 0.00 0.00 0.00 97 1014.7
20260830060519 64 0 0.0 2.0 0.00 0.00 0.00 97 1014.7
20260830060035 64 0 0.0 4.0 0.00 0.00 0.00 97 1015.0
20260830055520 64 0 0.0 4.0 0.00 0.00 0.00 97 1014.9
20260830055017 64 136 1.0 4.0 0.00 0.00 0.00 97 1014.9
20260830054534 64 0 0.0 3.0 0.00 0.00 0.00 97 1015.0
20260830054017 64 136 0.0 3.0 0.00 0.00 0.00 97 1015.0
20260830053521 64 136 1.0 4.0 0.00 0.00 0.00 97 1015.0
20260830053034 64 136 2.0 4.0 0.00 0.00 0.00 97 1015.0
20260830052519 64 136 2.0 4.0 0.00 0.00 0.00 97 1015.1
20260830052018 64 134 2.0 4.0 0.00 0.00 0.00 97 1015.1
20260830051539 64 134 1.0 4.0 0.00 0.00 0.00 97 1015.0
20260830051018 64 0 2.0 5.0 0.00 0.00 0.00 97 1015.0
20260830050518 64 134 2.0 6.0 0.00 0.00 0.00 97 1014.7
20260830050039 64 133 3.0 7.0 0.00 0.00 0.00 97 1014.7
20260830045520 64 123 2.0 7.0 0.00 0.00 0.00 97 1014.7
20260830045021 64 132 3.0 9.0 0.00 0.00 0.00 97 1014.6
20260830044538 64 153 1.0 9.0 0.00 0.00 0.00 97 1014.6
20260830044019 64 132 6.0 9.0 0.00 0.00 0.00 97 1014.4
20260830043521 64 135 4.0 8.0 0.00 0.00 0.00 97 1014.4
20260830043040 64 146 2.0 5.0 0.00 0.00 0.00 97 1014.7
20260830042517 64 140 2.0 7.0 0.00 0.00 0.00 97 1014.6
20260830042018 64 140 3.0 7.0 0.00 0.00 0.00 97 1014.8
20260830041539 64 140 3.0 7.0 0.00 0.00 0.00 97 1015.0
20260830041016 64 140 3.0 7.0 0.00 0.00 0.00 97 1014.9
20260830040521 64 140 4.0 8.0 0.00 0.00 0.00 97 1014.8
20260830040044 64 129 3.0 8.0 0.00 0.00 0.00 97 1014.7
20260830035521 64 119 3.0 9.0 0.00 0.00 0.00 97 1014.9
20260830035023 64 128 5.0 9.0 0.00 0.00 0.00 97 1015.0
20260830034538 64 140 5.0 9.0 0.00 0.00 0.00 97 1014.9